DW7628 Weather Reports


time (UTC)temp
F
wind
direction
speed
knots
gust
knots
rain 1hr
in
rain 24hr
in
rain mn
in
humidity
%
barometer
mb
20260506181806 64 79 0.0 0.0 0.00 0.00 0.00 60 1009.4
20260506181306 64 311 0.0 0.0 0.00 0.00 0.00 60 1009.5
20260506180805 64 357 0.0 0.0 0.00 0.00 0.00 60 1009.7
20260506180306 64 101 0.0 0.0 0.00 0.00 0.00 60 1010.0
20260506175306 65 111 0.0 0.0 0.00 0.00 0.00 60 1010.3
20260506174305 65 66 0.0 0.0 0.00 0.00 0.00 60 1010.6
20260506173806 65 128 0.0 0.0 0.00 0.00 0.00 60 1010.6
20260506173305 65 111 0.0 0.0 0.00 0.00 0.00 60 1010.6
20260506172806 66 138 0.0 0.0 0.00 0.00 0.00 60 1010.5
20260506172307 66 86 0.0 0.0 0.00 0.00 0.00 60 1010.5
20260506171806 66 100 0.0 0.0 0.00 0.00 0.00 61 1010.5
20260506170805 67 69 0.0 0.0 0.00 0.00 0.00 60 1010.5
20260506170305 67 83 0.0 0.0 0.00 0.00 0.00 60 1010.6
20260506165806 67 118 0.0 0.0 0.00 0.00 0.00 60 1010.3
20260506165306 68 78 0.0 0.0 0.00 0.00 0.00 60 1010.1
20260506164305 68 156 0.0 0.0 0.00 0.00 0.00 59 1009.9
20260506163805 69 133 0.0 0.0 0.00 0.00 0.00 59 1009.9
20260506163306 69 36 0.0 0.0 0.00 0.00 0.00 59 1010.0
20260506162805 69 22 0.0 0.0 0.00 0.00 0.00 59 1010.2
20260506162307 70 83 0.0 0.0 0.00 0.00 0.00 58 1010.1
20260506161805 70 175 0.0 0.0 0.00 0.00 0.00 57 1010.1
20260506161307 70 98 0.0 0.0 0.00 0.00 0.00 55 1010.0
20260506160805 70 75 0.0 0.0 0.00 0.00 0.00 48 1009.9
20260506160306 70 84 0.0 0.0 0.00 0.00 0.00 47 1009.8
20260506155306 70 82 0.0 0.0 0.00 0.00 0.00 46 1010.0
20260506154805 70 29 0.0 0.0 0.00 0.00 0.00 46 1010.3
20260506154306 70 79 0.0 0.0 0.00 0.00 0.00 45 1010.4
20260506153805 71 93 0.0 0.0 0.00 0.00 0.00 45 1010.5
20260506153305 71 317 0.0 0.0 0.00 0.00 0.00 44 1010.6
20260506152805 71 87 0.0 0.0 0.00 0.00 0.00 44 1010.7
20260506152306 71 237 0.0 0.0 0.00 0.00 0.00 45 1010.8
20260506151805 71 85 0.0 0.0 0.00 0.00 0.00 45 1010.8
20260506151305 71 159 0.0 0.0 0.00 0.00 0.00 45 1010.7
20260506150805 71 92 0.0 0.0 0.00 0.00 0.00 45 1010.8
20260506150305 71 211 0.0 0.0 0.00 0.00 0.00 45 1010.8
20260506145805 71 240 0.0 0.0 0.00 0.00 0.00 45 1010.8
20260506145306 71 157 0.0 0.0 0.00 0.00 0.00 45 1010.8
20260506144805 71 77 0.0 0.0 0.00 0.00 0.00 45 1010.9
20260506144305 70 105 0.0 0.0 0.00 0.00 0.00 47 1010.9
20260506143805 70 267 0.0 0.0 0.00 0.00 0.00 47 1011.0
20260506143305 70 86 0.0 0.0 0.00 0.00 0.00 46 1011.0
20260506142806 70 83 0.0 0.0 0.00 0.00 0.00 45 1011.0
20260506142306 71 67 0.0 0.0 0.00 0.00 0.00 46 1011.1
20260506141805 71 227 0.0 0.0 0.00 0.00 0.00 47 1011.0
20260506141305 70 165 0.0 0.0 0.00 0.00 0.00 48 1011.1
20260506140805 70 201 0.0 0.0 0.00 0.00 0.00 49 1011.1
20260506140305 71 74 0.0 0.0 0.00 0.00 0.00 49 1011.1
20260506135306 71 208 0.0 0.0 0.00 0.00 0.00 49 1011.2
20260506134805 70 194 0.0 0.0 0.00 0.00 0.00 49 1011.3
20260506133305 71 230 0.0 0.0 0.00 0.00 0.00 51 1011.3
20260506132805 71 248 0.0 0.0 0.00 0.00 0.00 51 1011.3
20260506132307 71 152 0.0 0.0 0.00 0.00 0.00 51 1011.4
20260506131806 72 61 0.0 0.0 0.00 0.00 0.00 49 1011.4
20260506131306 72 297 0.0 0.0 0.00 0.00 0.00 47 1011.5
20260506130805 73 246 0.0 0.0 0.00 0.00 0.00 44 1011.7
20260506130306 74 204 0.0 0.0 0.00 0.00 0.00 40 1011.8
20260506125805 74 161 0.0 0.0 0.00 0.00 0.00 38 1011.6
20260506124805 74 204 0.0 0.0 0.00 0.00 0.00 33 1011.7
20260506124305 74 133 0.0 0.0 0.00 0.00 0.00 31 1011.6
20260506123306 74 291 0.0 0.0 0.00 0.00 0.00 28 1011.4
20260506122805 74 252 0.0 0.0 0.00 0.00 0.00 27 1011.5
20260506122306 74 198 0.0 0.0 0.00 0.00 0.00 26 1011.4
20260506121805 74 65 0.0 0.0 0.00 0.00 0.00 29 1011.3
20260506121305 73 79 0.0 0.0 0.00 0.00 0.00 30 1011.2
20260506120805 73 89 0.0 0.0 0.00 0.00 0.00 31 1011.3
20260506120305 73 57 0.0 0.0 0.00 0.00 0.00 32 1011.4
20260506115805 73 123 0.0 0.0 0.00 0.00 0.00 32 1011.5
20260506115307 72 86 0.0 0.0 0.00 0.00 0.00 32 1011.5
20260506114805 72 80 0.0 0.0 0.00 0.00 0.00 32 1011.4
20260506114305 73 53 0.0 0.0 0.00 0.00 0.00 32 1011.4
20260506113804 72 79 0.0 0.0 0.00 0.00 0.00 32 1011.5
20260506113305 72 274 0.0 0.0 0.00 0.00 0.00 30 1011.4
20260506112804 72 80 0.0 0.0 0.00 0.00 0.00 29 1011.5
20260506111805 72 205 0.0 0.0 0.00 0.00 0.00 30 1011.8
20260506111305 72 89 0.0 0.0 0.00 0.00 0.00 32 1011.9
20260506110805 72 194 0.0 0.0 0.00 0.00 0.00 34 1012.1
20260506105804 71 121 0.0 0.0 0.00 0.00 0.00 35 1012.2
20260506105305 71 74 0.0 0.0 0.00 0.00 0.00 36 1012.3
20260506104804 71 75 0.0 0.0 0.00 0.00 0.00 35 1012.4
20260506104305 71 149 0.0 0.0 0.00 0.00 0.00 35 1012.4
20260506103805 71 69 0.0 0.0 0.00 0.00 0.00 35 1012.4
20260506103305 71 202 0.0 0.0 0.00 0.00 0.00 35 1012.4
20260506102306 71 77 0.0 0.0 0.00 0.00 0.00 34 1012.3
20260506101805 70 91 0.0 0.0 0.00 0.00 0.00 36 1012.5
20260506101305 70 85 0.0 0.0 0.00 0.00 0.00 35 1012.4
20260506100805 70 94 0.0 0.0 0.00 0.00 0.00 36 1012.3
20260506094805 69 73 0.0 0.0 0.00 0.00 0.00 38 1012.6
20260506094305 69 77 0.0 0.0 0.00 0.00 0.00 40 1012.6
20260506093805 68 277 0.0 0.0 0.00 0.00 0.00 42 1012.5
20260506093304 67 78 0.0 0.0 0.00 0.00 0.00 42 1012.6
20260506092806 68 80 0.0 0.0 0.00 0.00 0.00 42 1012.8
20260506092306 68 218 0.0 0.0 0.00 0.00 0.00 42 1012.9
20260506091804 68 281 0.0 0.0 0.00 0.00 0.00 43 1012.8
20260506091306 67 90 0.0 0.0 0.00 0.00 0.00 43 1012.7
20260506090805 67 72 0.0 0.0 0.00 0.00 0.00 44 1012.7
20260506090305 67 227 0.0 0.0 0.00 0.00 0.00 45 1012.8
20260506085805 66 89 0.0 0.0 0.00 0.00 0.00 46 1012.8
20260506084305 66 68 0.0 0.0 0.00 0.00 0.00 45 1013.0
20260506083805 66 109 0.0 0.0 0.00 0.00 0.00 45 1013.0
20260506083305 65 120 0.0 0.0 0.00 0.00 0.00 46 1013.0
20260506082804 65 89 0.0 0.0 0.00 0.00 0.00 45 1013.0
20260506082305 65 83 0.0 0.0 0.00 0.00 0.00 46 1013.0
20260506081805 66 70 0.0 0.0 0.00 0.00 0.00 44 1013.0
20260506081305 65 116 0.0 0.0 0.00 0.00 0.00 45 1013.0
20260506080805 65 128 0.0 0.0 0.00 0.00 0.00 45 1012.9
20260506080305 64 91 0.0 0.0 0.00 0.00 0.00 46 1012.9
20260506072804 62 85 0.0 0.0 0.00 0.00 0.00 53 1012.5
20260506072306 61 243 0.0 0.0 0.00 0.00 0.00 54 1012.5
20260506071804 61 111 0.0 0.0 0.00 0.00 0.00 54 1012.5
20260506071305 61 89 0.0 0.0 0.00 0.00 0.00 54 1012.5
20260506070805 61 58 0.0 0.0 0.00 0.00 0.00 54 1012.4
20260506070304 61 231 0.0 0.0 0.00 0.00 0.00 53 1012.5
20260506062306 61 113 0.0 0.0 0.00 0.00 0.00 60 1012.9
20260506061804 60 76 0.0 0.0 0.00 0.00 0.00 61 1013.0
20260506061305 60 79 0.0 0.0 0.00 0.00 0.00 61 1013.0
20260506060305 59 254 0.0 0.0 0.00 0.00 0.00 63 1013.0
20260506051304 58 117 0.0 0.0 0.00 0.00 0.00 58 1012.8
20260506050804 58 98 0.0 0.0 0.00 0.00 0.00 60 1012.8
20260506050304 58 16 0.0 0.0 0.00 0.00 0.00 61 1012.8
20260506044805 57 16 0.0 0.0 0.00 0.00 0.00 62 1012.8
20260506043804 58 16 0.0 0.0 0.00 0.00 0.00 61 1012.7
20260506043304 58 16 0.0 0.0 0.00 0.00 0.00 61 1012.8
20260506042305 58 16 0.0 0.0 0.00 0.00 0.00 61 1012.8
20260506041304 58 28 0.0 0.0 0.00 0.00 0.00 60 1012.7
20260506040804 58 28 0.0 0.0 0.00 0.00 0.00 59 1012.6
20260506035804 59 238 0.0 0.0 0.00 0.00 0.00 56 1012.5
20260506035306 59 238 0.0 0.0 0.00 0.00 0.00 57 1012.4
20260506034303 59 241 0.0 0.0 0.00 0.00 0.00 58 1012.3
20260506033804 59 75 0.0 0.0 0.00 0.00 0.00 60 1011.8
20260506033304 59 121 0.0 0.0 0.00 0.00 0.00 58 1011.9
20260506032805 59 32 0.0 0.0 0.00 0.00 0.00 57 1011.9
20260506032305 59 32 0.0 0.0 0.00 0.00 0.00 57 1012.1
20260506031804 59 32 0.0 0.0 0.00 0.00 0.00 56 1011.9
20260506031304 59 135 0.0 0.0 0.00 0.00 0.00 56 1011.9
20260506030804 59 89 0.0 0.0 0.00 0.00 0.00 56 1011.9
20260506030304 59 21 0.0 0.0 0.00 0.00 0.00 56 1012.1
20260506025804 59 19 0.0 0.0 0.00 0.00 0.00 56 1012.1
20260506024804 59 119 0.0 0.0 0.00 0.00 0.00 57 1012.2
20260506024304 59 157 0.0 0.0 0.00 0.00 0.00 57 1012.3
20260506023803 59 159 0.0 0.0 0.00 0.00 0.00 58 1012.4
20260506023304 59 243 0.0 0.0 0.00 0.00 0.00 59 1012.5
20260506022803 59 72 0.0 0.0 0.00 0.00 0.00 60 1012.3
20260506022306 59 151 0.0 0.0 0.00 0.00 0.00 61 1012.4
20260506021804 59 162 0.0 0.0 0.00 0.00 0.00 61 1012.4
20260506021304 59 51 0.0 0.0 0.00 0.00 0.00 63 1012.5
20260506020804 59 51 0.0 0.0 0.00 0.00 0.00 63 1012.7
20260506020303 59 47 0.0 0.0 0.00 0.00 0.00 62 1012.7
20260506015804 59 290 0.0 0.0 0.00 0.00 0.00 62 1012.7
20260506015305 59 304 0.0 0.0 0.00 0.00 0.00 62 1012.7
20260506014804 59 304 0.0 0.0 0.00 0.00 0.00 61 1012.6
20260506014304 59 141 0.0 0.0 0.00 0.00 0.00 61 1012.4
20260506013804 59 85 0.0 0.0 0.00 0.00 0.00 61 1012.4
20260506013304 59 80 0.0 0.0 0.00 0.00 0.00 61 1012.4
20260506012804 59 309 0.0 0.0 0.00 0.00 0.00 63 1012.9
20260506011804 59 59 0.0 0.0 0.00 0.00 0.00 62 1012.2
20260506011304 59 82 0.0 0.0 0.00 0.00 0.00 60 1012.4
20260506010804 59 232 0.0 0.0 0.00 0.00 0.00 59 1012.5
20260506010304 59 105 0.0 0.0 0.00 0.00 0.00 58 1011.9
20260506005804 59 86 0.0 0.0 0.00 0.00 0.00 60 1012.3
20260506004804 59 82 0.0 0.0 0.00 0.00 0.00 59 1012.5
20260506003804 59 257 0.0 0.0 0.00 0.00 0.00 60 1012.8
20260506003304 59 108 0.0 0.0 0.00 0.00 0.00 61 1012.6
20260506002806 59 76 0.0 0.0 0.00 0.00 0.00 61 1012.8
20260506002307 59 82 0.0 0.0 0.00 0.00 0.00 61 1012.8
20260506001806 59 87 0.0 0.0 0.00 0.00 0.00 62 1013.1
20260506001306 59 87 0.0 0.0 0.00 0.00 0.00 62 1013.2
20260506000806 59 87 0.0 0.0 0.00 0.00 0.00 63 1013.0
20260506000306 59 102 0.0 0.0 0.00 0.00 0.00 63 1013.1
20260505235807 59 76 0.0 0.0 0.00 0.00 0.00 64 1013.3
20260505235306 59 259 0.0 0.0 0.00 0.00 0.00 63 1013.4
20260505234807 59 250 0.0 0.0 0.00 0.00 0.00 63 1013.3
20260505233806 60 108 0.0 0.0 0.00 0.00 0.00 66 1013.2
20260505233306 60 73 0.0 0.0 0.00 0.00 0.00 66 1013.2
20260505232805 60 78 0.0 0.0 0.00 0.00 0.00 67 1013.5
20260505232307 60 78 0.0 0.0 0.00 0.00 0.00 66 1013.4
20260505231806 60 84 0.0 0.0 0.00 0.00 0.00 66 1013.3
20260505231306 60 138 0.0 0.0 0.00 0.00 0.00 66 1013.4
20260505230806 60 129 0.0 0.0 0.00 0.00 0.00 67 1013.4
20260505225806 60 80 0.0 0.0 0.00 0.00 0.00 69 1013.5
20260505223806 59 85 0.0 0.0 0.00 0.00 0.00 71 1013.5
20260505223305 59 79 0.0 0.0 0.00 0.00 0.00 73 1013.5
20260505222806 59 90 0.0 0.0 0.00 0.00 0.00 74 1013.6
20260505222306 59 256 0.0 0.0 0.00 0.00 0.00 75 1013.8
20260505221806 59 246 0.0 0.0 0.00 0.00 0.00 75 1013.8
20260505221305 59 236 0.0 0.0 0.00 0.00 0.00 76 1013.8
20260505214807 59 55 0.0 0.0 0.00 0.00 0.00 76 1013.8
20260505214306 59 100 0.0 0.0 0.00 0.00 0.00 76 1013.8
20260505213806 59 84 0.0 0.0 0.00 0.00 0.00 76 1013.8
20260505213306 59 89 0.0 0.0 0.00 0.00 0.00 75 1013.8
20260505212807 59 86 0.0 0.0 0.00 0.00 0.00 75 1013.9
20260505212306 59 82 0.0 0.0 0.00 0.00 0.00 74 1014.0
20260505211305 59 70 0.0 0.0 0.00 0.00 0.00 74 1014.1
20260505210807 59 86 0.0 0.0 0.00 0.00 0.00 74 1014.1
20260505210305 59 222 0.0 0.0 0.00 0.00 0.00 74 1014.2
20260505204806 59 214 0.0 0.0 0.00 0.00 0.00 76 1014.2
20260505204305 59 76 0.0 0.0 0.00 0.00 0.00 75 1014.3
20260505203806 60 87 0.0 0.0 0.00 0.00 0.00 75 1014.2
20260505202807 60 133 0.0 0.0 0.00 0.00 0.00 75 1014.4
20260505202307 60 59 0.0 0.0 0.00 0.00 0.00 75 1014.4
20260505201305 60 133 0.0 0.0 0.00 0.00 0.00 74 1014.4
20260505200806 60 91 0.0 0.0 0.00 0.00 0.00 73 1014.4
20260505200306 60 90 0.0 0.0 0.00 0.00 0.00 74 1014.4
20260505195806 60 222 0.0 0.0 0.00 0.00 0.00 73 1014.4
20260505195305 60 262 0.0 0.0 0.00 0.00 0.00 74 1014.3
20260505194806 60 294 0.0 0.0 0.00 0.00 0.00 75 1014.3
20260505194306 60 157 0.0 0.0 0.00 0.00 0.00 75 1014.3
20260505193805 60 156 0.0 0.0 0.00 0.00 0.00 75 1014.4
20260505193306 60 267 0.0 0.0 0.00 0.00 0.00 74 1014.4
20260505192806 60 229 0.0 0.0 0.00 0.00 0.00 75 1014.2
20260505192306 60 165 0.0 0.0 0.00 0.00 0.00 75 1014.1
20260505191806 60 150 0.0 0.0 0.00 0.00 0.00 74 1014.0
20260505191306 60 79 0.0 0.0 0.00 0.00 0.00 74 1013.9
20260505190806 60 99 0.0 0.0 0.00 0.00 0.00 74 1014.0
20260505190305 60 131 0.0 0.0 0.00 0.00 0.00 73 1014.0
20260505185806 60 102 0.0 0.0 0.00 0.00 0.00 73 1013.9
20260505185306 60 171 0.0 0.0 0.00 0.00 0.00 73 1014.0
20260505184806 60 140 0.0 0.0 0.00 0.00 0.00 73 1014.0
20260505184305 60 233 0.0 0.0 0.00 0.00 0.00 73 1013.9
20260505183805 61 85 0.0 0.0 0.00 0.00 0.00 72 1013.9
20260505182806 61 215 0.0 0.0 0.00 0.00 0.00 71 1013.8
20260505182306 61 146 0.0 0.0 0.00 0.00 0.00 71 1013.8